Theta_e
292 291 290 290 290 290 289 288 287 284 284 286 285 287 287 287 288 287 286 290 291 291 292 293 294 294 294 295 295 296 296 296 295 295 295 296 296 296
291 290 289 289 289 289 288 288 287 286 283 286 285 286 287 288 289 287 287 289 290 290 291 292 292 293 293 293 293 294 293 294 294 294 294 294 295 295
289 288 288 288 287 288 288 288 287 286 284 285 286 286 286 285 286 286 286 285 285 289 290 291 291 291 291 291 291 292 291 292 292 292 292 293 293 293
288 288 287 289 287 287 287 286 286 286 286 284 284 284 284 284 284 283 286 287 284 288 290 290 290 290 290 290 290 290 289 289 290 290 290 291 291 292
288 287 287 287 285 286 286 286 286 287 285 283 282 284 283 282 281 282 282 281 285 288 289 288 288 289 289 289 288 288 288 288 288 288 288 289 289 289
288 287 287 286 285 285 285 285 286 284 283 282 281 280 279 282 280 279 278 278 279 284 285 285 286 288 288 288 286 287 287 287 287 287 287 287 287 287
287 287 286 286 287 288 286 285 285 284 283 282 281 279 280 280 280 279 278 277 276 276 277 277 279 280 281 284 284 286 286 286 286 286 286 286 286 285
285 284 285 285 288 290 290 289 288 285 283 281 281 281 282 281 279 278 280 276 272 276 276 277 277 277 278 279 286 286 286 285 285 285 285 285 285 284
284 284 284 284 284 285 287 288 288 289 288 284 281 282 281 282 280 278 280 279 278 277 275 269 275 275 277 280 286 285 285 284 284 284 284 284 284 282
284 284 283 283 283 283 284 284 284 285 285 285 284 283 283 282 281 281 281 279 276 276 274 267 273 273 276 276 284 284 283 283 283 283 283 283 283 281
284 284 284 283 285 287 284 283 283 284 287 288 287 287 286 287 285 281 272 269 266 272 273 271 271 270 272 272 277 282 282 282 282 281 281 282 282 280
283 284 284 285 286 287 284 283 282 282 282 281 281 283 283 282 285 280 275 268 266 266 273 269 270 269 267 271 272 270 274 279 279 280 280 280 281 276
282 282 283 287 287 288 287 284 283 283 284 282 281 279 280 280 280 278 277 274 267 268 275 271 267 266 263 266 267 268 269 272 272 274 277 279 279 279
282 283 283 286 287 287 286 287 287 285 282 280 278 279 279 279 280 281 280 276 273 273 271 272 267 266 262 261 265 268 269 269 272 272 272 275 277 278
284 284 285 286 287 287 287 287 284 285 282 280 279 279 280 280 279 277 276 270 269 270 272 270 270 267 265 262 263 266 270 268 270 270 271 271 271 273
285 284 285 285 286 285 283 285 285 284 282 281 280 279 278 276 276 275 271 270 266 267 271 272 270 269 263 266 266 265 266 267 268 268 270 270 272 272
284 282 282 282 281 281 281 282 282 281 281 281 279 278 278 275 273 271 270 267 265 265 269 267 268 270 269 267 262 265 266 265 268 268 268 266 269 271
283 281 280 280 280 280 280 280 281 280 279 277 277 276 275 274 273 270 269 269 267 264 264 264 265 264 263 266 272 267 265 266 267 268 268 263 264 269
283 282 281 281 280 280 280 279 279 280 279 277 276 276 274 273 272 272 271 268 266 264 264 263 262 261 256 257 264 276 265 264 265 264 266 264 263 268
283 282 281 281 281 280 279 279 279 279 277 276 275 275 274 273 271 270 269 266 266 262 260 260 262 263 260 260 257 264 274 264 262 261 263 264 267 273
283 282 282 281 281 281 280 280 279 279 277 275 274 273 273 271 271 270 270 269 265 264 264 262 267 267 262 258 256 258 263 273 268 262 262 260 261 262
281 282 282 282 282 281 280 279 278 277 275 273 273 272 272 271 270 269 269 267 266 266 266 265 264 261 257 260 257 257 260 262 266 269 271 268 259 256
282 282 282 281 279 278 277 276 276 276 275 274 272 272 270 269 269 269 268 268 266 265 265 264 264 264 263 262 258 258 256 257 259 260 261 269 272 273
Wind_Speed
6 6 4 3 3 3 2 3 5 5 5 3 2 2 0 0 2 2 2 6 5 8 10 11 12 15 17 20 22 25 27 28 30 31 32 34 36 37
5 7 5 3 4 3 3 2 2 3 4 3 2 3 1 1 1 2 2 5 6 7 9 11 11 14 16 18 21 24 26 28 30 31 32 33 35 36
7 8 7 6 4 4 3 2 2 2 3 0 2 3 2 0 3 3 2 3 3 7 8 12 12 13 15 16 20 23 26 28 29 30 31 32 34 35
11 10 9 7 7 6 4 5 4 3 3 4 2 2 3 3 1 2 3 3 3 5 7 11 13 13 16 14 18 21 25 27 28 28 29 32 34 35
12 11 11 9 7 5 4 5 4 3 2 2 2 2 2 1 1 2 3 2 3 6 5 9 13 12 14 15 16 20 24 25 27 28 30 31 33 34
8 9 10 10 10 8 6 6 5 4 3 2 1 2 2 2 1 1 3 2 3 2 3 6 10 11 14 15 14 17 23 25 25 26 28 30 32 32
7 7 7 7 9 9 6 6 6 4 2 2 2 2 2 1 2 1 2 3 3 1 3 2 3 3 5 8 9 13 21 23 24 25 27 29 30 31
8 6 7 8 10 11 10 12 9 7 5 3 2 3 3 3 2 1 3 2 3 2 3 5 1 2 3 3 11 16 20 21 23 24 26 28 30 31
9 9 7 6 8 7 10 9 8 9 7 5 3 4 2 4 4 2 4 4 4 3 2 3 2 3 2 4 9 16 19 20 22 23 25 28 29 29
9 9 9 9 8 8 7 6 6 5 5 4 5 4 2 4 4 4 4 4 4 3 3 1 2 3 3 3 7 15 17 19 20 22 24 26 27 27
6 7 8 9 13 16 8 7 6 6 7 10 8 6 5 8 9 2 3 2 3 3 1 2 2 2 2 2 2 12 16 18 19 21 22 24 26 24
4 6 11 9 16 19 8 8 8 5 6 2 2 4 3 5 10 6 3 3 3 3 3 2 2 2 4 3 2 2 2 14 17 19 20 22 25 9
7 6 6 15 15 16 15 7 7 6 9 6 6 3 3 4 4 3 4 3 3 3 3 3 1 2 1 3 3 1 2 4 3 8 16 20 21 19
7 5 6 16 16 16 13 14 13 9 4 4 3 4 4 5 5 6 6 5 4 4 3 4 2 3 2 2 3 3 3 3 3 6 7 10 16 19
4 9 13 17 19 16 19 17 11 7 6 6 6 5 4 4 3 3 2 2 3 3 4 3 3 2 3 3 3 3 5 3 2 4 5 6 5 7
10 7 9 11 11 9 6 11 8 7 8 7 6 4 3 3 3 3 3 2 2 4 2 5 5 4 2 3 3 4 1 2 2 1 3 4 3 4
7 4 5 5 7 7 7 8 7 6 7 6 6 6 5 4 3 3 3 2 3 2 2 2 2 4 4 4 2 3 2 2 2 1 1 2 3 4
7 7 8 8 8 8 8 8 8 9 8 7 6 6 7 7 6 3 3 4 4 3 3 3 2 2 3 5 13 5 2 2 2 2 2 1 2 2
9 9 9 8 8 8 8 9 9 9 8 8 8 8 7 6 7 7 6 4 4 3 4 3 3 4 2 3 3 11 3 2 2 2 1 1 2 4
9 8 8 7 8 8 9 9 7 7 9 8 8 7 8 8 6 6 7 5 5 3 2 1 3 4 5 5 3 3 5 2 1 1 1 2 4 7
8 8 6 6 6 7 7 7 7 7 7 7 8 8 8 8 8 7 7 9 6 4 5 4 5 5 4 3 3 3 3 7 5 3 1 1 2 2
6 7 7 7 8 8 7 6 7 6 7 7 7 8 8 8 8 8 8 8 6 7 6 3 5 3 3 4 4 3 2 2 3 8 10 8 4 2
8 7 7 6 7 7 6 5 6 6 7 7 7 7 7 8 8 8 7 8 7 6 5 6 5 3 3 4 5 3 2 1 1 3 3 7 11 13
Wind_Direction
137 135 131 139 124 112 109 118 146 172 207 237 154 143 125 266 122 20 32 334 354 5 0 355 353 352 351 352 352 354 352 352 353 354 352 350 349 348
136 138 139 143 131 125 132 138 125 164 161 155 188 149 193 319 102 45 343 337 337 341 351 348 344 347 348 351 351 355 352 353 353 355 352 350 350 348
149 149 156 150 158 156 154 150 162 151 163 134 127 170 147 202 340 344 354 310 319 313 340 351 344 348 347 349 351 355 353 354 354 355 353 351 351 349
164 158 163 163 167 162 158 176 175 167 175 170 162 207 172 199 233 286 296 304 306 312 327 355 347 343 345 348 352 355 353 354 354 355 353 354 354 351
168 165 169 167 164 168 162 167 155 154 152 154 194 200 194 174 309 302 278 279 286 322 345 345 347 343 342 349 352 353 351 352 354 358 356 356 355 354
170 168 167 172 169 164 169 167 169 144 161 177 158 235 178 231 130 167 316 293 300 330 352 330 345 333 341 350 346 342 353 354 354 358 356 357 357 357
167 162 161 157 160 168 167 165 159 149 164 180 207 218 189 133 188 258 281 295 300 8 326 329 326 328 338 355 322 335 354 354 354 357 358 360 0 360
157 153 142 150 174 173 165 178 176 175 174 165 201 215 182 167 147 177 288 347 307 285 31 322 66 323 304 325 331 357 357 355 357 358 359 2 4 4
159 169 158 160 163 169 184 183 186 188 186 177 214 240 185 173 143 197 249 265 267 289 76 296 343 319 281 329 342 1 0 356 359 0 2 4 6 7
158 172 173 168 179 172 177 185 195 187 206 198 198 230 171 147 169 190 220 261 276 268 128 206 309 291 309 312 7 4 1 356 360 2 5 6 8 9
153 167 170 171 183 188 182 193 197 196 205 211 210 207 218 223 202 166 249 104 292 267 330 128 288 286 301 297 321 19 7 357 1 3 7 10 9 10
142 172 179 180 188 198 190 189 208 184 179 160 193 215 251 266 238 187 171 176 209 328 255 110 329 35 332 293 325 39 331 360 1 6 9 12 10 12
176 180 190 194 197 203 202 198 214 158 202 193 198 188 176 219 232 208 198 173 191 235 215 113 170 358 147 298 302 302 44 335 339 354 6 10 14 17
187 180 179 198 206 209 210 211 218 216 180 181 180 200 206 212 214 210 201 213 219 189 200 134 191 159 161 311 267 330 342 308 12 356 350 356 14 14
185 187 188 203 211 213 218 216 217 214 197 201 210 201 205 224 155 138 170 233 248 247 194 181 159 193 151 206 269 301 333 316 9 1 345 342 3 359
197 199 199 202 202 211 208 223 219 215 204 212 207 179 156 161 189 176 171 187 197 283 230 184 170 158 228 222 216 279 262 282 332 342 328 326 338 9
167 165 195 199 204 210 210 209 214 200 208 205 192 187 188 185 197 174 169 189 180 187 200 255 204 195 214 206 296 242 262 285 262 299 4 326 329 20
187 202 209 206 210 214 216 214 207 204 207 198 205 205 208 204 201 183 166 187 193 209 197 190 137 32 344 282 215 244 281 253 279 345 321 52 307 321
218 217 217 210 214 215 216 206 208 212 193 201 210 213 201 202 188 197 196 183 204 202 209 174 137 129 135 219 290 211 197 246 306 331 257 218 237 301
226 226 222 224 221 219 218 210 212 201 202 203 205 206 204 201 193 204 200 189 190 182 202 201 162 172 170 196 198 262 235 179 190 266 303 322 279 301
226 227 223 227 229 227 230 233 209 208 203 199 200 200 201 198 205 203 200 197 166 167 194 208 214 144 121 77 27 301 275 225 191 173 225 354 293 338
229 228 225 226 231 228 210 199 202 198 189 199 210 205 204 198 210 205 196 185 187 191 203 163 152 132 114 168 202 228 291 329 306 294 272 222 164 226
235 231 233 223 215 212 203 201 212 221 221 209 205 209 198 203 204 199 200 199 183 180 183 179 173 172 189 204 181 180 236 302 301 329 295 257 249 252